Location: Chena
(64.8152°N, 147.9227°W)
Time: 06:52:42
(UTC+00:00)

N. Korean satellite - Pass Details

Date: 22 January 2021
Orbit: 451 x 502 km, 97.2° (Epoch: 08 March)

Event Time Altitude Azimuth Distance (km) Brightness Sun altitude
Rises 16:56:55 0° 16° (NNE) 2,561 10.2 -12.1°
Reaches altitude 10° 16:59:08 10° 7° (N) 1,667 9.1 -11.9°
Maximum altitude 17:02:21 32° 303° (WNW) 831 7.2 -11.5°
Drops below altitude 10° 17:05:31 10° 238° (WSW) 1,630 8.9 -11.2°
Sets 17:07:39 0° 229° (SW) 2,495 9.9 -11.0°
